Laramie, WY

5:58 AM MST on February 14, 2016 (GMT -0700)
Laramie Regional

Weather History for KLAR - April, 2014

Change the Weather History Date:

Sunday, April 13, 2014

  Actual Average Record
Temperature  
Mean Temperature 23 °F 37 °F  
Max Temperature 36 °F 50 °F 72 °F (2006)
Min Temperature 9 °F 24 °F -3 °F (1997)
Degree Days  
Heating Degree Days 42 28  
Month to date heating degree days 362 384  
Since 1 July heating degree days 7403 7619  
Cooling Degree Days 0 0  
Month to date cooling degree days 0 0  
Year to date cooling degree days 0 0  
Moisture  
Dew Point 18 °F    
Average Humidity 81    
Maximum Humidity 88    
Minimum Humidity 73    
Precipitation  
Precipitation 0.03 in 0.04 in 0.68 in (1967)
Month to date precipitation 0.11 0.38  
Year to date precipitation 1.84 1.57  
Sea Level Pressure  
Sea Level Pressure 29.92 in    
Wind  
Wind Speed 15 mph (ENE)    
Max Wind Speed 25 mph    
Max Gust Speed 30 mph    
Visibility 2 miles    
Events Fog , Rain , Snow    
T = Trace of Precipitation, MM = Missing Value Source: NWS Daily Summary

Daily Weather History Graph

Daily Weather History Graph

Search for Another Location

Airport or City:

Trip Planner

Search our weather history database for the weather conditions in past years. The results will help you decide how hot, cold, wet, or windy it might be!

Date:

Astronomy

Apr. 13, 2014 Rise Set
Actual Time 6:26 AM MDT 7:40 PM MDT
Civil Twilight 5:57 AM MDT 8:09 PM MDT
Nautical Twilight 5:23 AM MDT 8:43 PM MDT
Astronomical Twilight 4:47 AM MDT 9:19 PM MDT
Moon 6:20 PM MDT (4/13) 5:27 AM MDT (4/13)
Length of Visible Light 14h 11m
Length of Day
13h 14m
Waxing Gibbous, 97% of the Moon is Illuminated
Apr 13
Waxing Gibbous
Apr 15
Full
Apr 22
Last Quarter
Apr 29
New
May 6
First Quarter

Hourly Weather History & Observations

Time (MDT) Temp. Windchill Dew Point Humidity Pressure Visibility Wind Dir Wind Speed Gust Speed Precip Events Conditions
12:20 AM 35.1 °F 25.9 °F 33.1 °F 92% 29.80 in 6.0 mi ESE 13.8 mph - 0.02 in Rain Light Rain
12:48 AM 33.8 °F 23.9 °F 32.0 °F 93% 29.80 in 2.0 mi SE 15.0 mph - 0.03 in Snow Light Snow
12:53 AM 33.1 °F 22.6 °F 32.0 °F 96% 29.61 in 2.0 mi SE 16.1 mph - 0.04 in Snow Light Snow
1:01 AM 33.1 °F 23.0 °F 32.0 °F 96% 29.80 in 1.5 mi SE 15.0 mph - 0.02 in Snow Light Snow
1:05 AM 33.1 °F 23.0 °F 32.0 °F 96% 29.80 in 2.0 mi SE 15.0 mph - 0.02 in Snow Light Snow
1:15 AM 33.1 °F 23.9 °F 32.0 °F 96% 29.79 in 4.0 mi SE 12.7 mph - 0.02 in Snow Light Snow
1:24 AM 33.1 °F 23.9 °F 32.0 °F 96% 29.79 in 9.0 mi SE 12.7 mph - 0.02 in Rain Light Rain
1:53 AM 34.0 °F 28.8 °F 33.1 °F 96% 29.61 in 10.0 mi ESE 5.8 mph - 0.03 in   Overcast
2:44 AM 34.0 °F 23.0 °F 30.0 °F 85% 29.78 in 5.0 mi East 18.4 mph - 0.00 in Snow Light Snow
2:53 AM 32.0 °F 20.5 °F 30.0 °F 92% 29.62 in 1.2 mi East 18.4 mph 27.6 mph 0.00 in Snow Light Snow
3:13 AM 30.9 °F 20.7 °F 28.9 °F 92% 29.78 in 0.8 mi East 13.8 mph - 0.00 in Snow Light Snow
3:30 AM 30.9 °F 19.8 °F 28.0 °F 89% 29.79 in 1.0 mi ENE 16.1 mph - 0.00 in Snow Light Snow
3:40 AM 30.0 °F 18.3 °F 27.0 °F 88% 29.79 in 2.0 mi ENE 17.3 mph - 0.00 in Snow Light Snow
3:53 AM 28.9 °F 15.8 °F 25.0 °F 85% 29.64 in 2.5 mi ENE 20.7 mph - 0.00 in Snow Light Snow
4:31 AM 28.9 °F 16.1 °F 25.0 °F 85% 29.79 in 3.0 mi ENE 19.6 mph - 0.00 in Snow Light Snow
4:40 AM 28.9 °F 16.1 °F 25.0 °F 85% 29.80 in 2.0 mi East 19.6 mph 26.5 mph 0.00 in Snow Light Snow
4:53 AM 28.0 °F 14.9 °F 24.1 °F 85% 29.66 in 3.0 mi East 19.6 mph - 0.00 in Snow Light Snow
5:03 AM 28.0 °F 14.9 °F 24.1 °F 85% 29.79 in 1.8 mi East 19.6 mph - 0.00 in Snow Light Snow
5:31 AM 28.0 °F 14.9 °F 24.1 °F 85% 29.79 in 2.0 mi East 19.6 mph 25.3 mph 0.00 in Snow Light Snow
5:41 AM 28.0 °F 15.7 °F 24.1 °F 85% 29.79 in 4.0 mi ENE 17.3 mph - 0.00 in Snow Light Snow
5:53 AM 28.0 °F 15.3 °F 23.0 °F 81% 29.68 in 9.0 mi ENE 18.4 mph - 0.00 in   Overcast
6:18 AM 27.0 °F 14.7 °F 21.9 °F 81% 29.82 in 4.0 mi ENE 16.1 mph - 0.00 in Snow Light Snow
6:31 AM 26.1 °F 12.3 °F 21.9 °F 84% 29.83 in 1.8 mi ENE 19.6 mph - 0.00 in Snow Light Snow
6:40 AM 26.1 °F 13.1 °F 21.9 °F 84% 29.84 in 1.0 mi ENE 17.3 mph - 0.00 in Snow Light Snow
6:48 AM 26.6 °F 13.4 °F 21.2 °F 80% 29.84 in 0.8 mi ENE 18.4 mph - 0.00 in Snow Light Snow
6:53 AM 26.1 °F 13.1 °F 21.9 °F 84% 29.77 in 0.8 mi ENE 17.3 mph - 0.00 in Snow Light Snow
7:10 AM 26.1 °F 12.3 °F 21.9 °F 84% 29.83 in 1.0 mi ENE 19.6 mph - 0.00 in Snow Light Snow
7:22 AM 26.1 °F 13.6 °F 21.0 °F 81% 29.82 in 3.0 mi ENE 16.1 mph 26.5 mph 0.00 in Snow Light Snow
7:53 AM 26.1 °F 12.0 °F 21.0 °F 81% 29.75 in 8.0 mi East 20.7 mph 26.5 mph 0.00 in   Overcast
8:30 AM 25.0 °F 10.6 °F 19.9 °F 81% 29.85 in 2.0 mi East 20.7 mph 28.8 mph 0.00 in Snow Light Snow
8:53 AM 25.0 °F 9.9 °F 19.9 °F 81% 29.80 in 0.8 mi East 23.0 mph 27.6 mph 0.00 in Snow Light Snow
9:09 AM 25.0 °F 13.1 °F 21.0 °F 85% 29.84 in 1.2 mi East 13.8 mph - 0.00 in Snow Light Snow
9:13 AM 25.0 °F 12.6 °F 19.9 °F 81% 29.84 in 2.0 mi East 15.0 mph - 0.00 in Snow Light Snow
9:23 AM 25.0 °F 11.3 °F 19.0 °F 78% 29.83 in 4.0 mi ENE 18.4 mph 24.2 mph 0.00 in Snow Light Snow
9:53 AM 25.0 °F 12.2 °F 19.0 °F 78% 29.81 in 10.0 mi ENE 16.1 mph - 0.00 in   Overcast
10:53 AM 23.0 °F 10.1 °F 17.1 °F 78% 29.85 in 10.0 mi ENE 15.0 mph - N/A   Overcast
11:53 AM 21.9 °F 7.8 °F 16.0 °F 78% 29.87 in 5.0 mi East 17.3 mph - 0.00 in Snow Light Snow
12:07 PM 21.9 °F 8.2 °F 16.0 °F 78% 29.87 in 2.0 mi East 16.1 mph - 0.00 in Snow Light Snow
12:32 PM 21.0 °F 5.0 °F 16.0 °F 81% 29.86 in 1.8 mi ENE 21.9 mph - 0.00 in Snow Light Snow
12:43 PM 21.0 °F 5.4 °F 16.0 °F 81% 29.87 in 2.5 mi ENE 20.7 mph 26.5 mph 0.00 in Snow Light Snow
12:53 PM 19.9 °F 4.3 °F 15.1 °F 81% 29.91 in 1.0 mi ENE 19.6 mph - 0.00 in Snow Light Snow
1:03 PM 19.9 °F 4.3 °F 15.1 °F 81% 29.88 in 0.8 mi ENE 19.6 mph - 0.00 in Snow Light Snow
1:32 PM 19.0 °F 2.4 °F 14.0 °F 81% 29.89 in 0.5 mi ENE 21.9 mph - 0.00 in Snow Snow
1:39 PM 19.0 °F 2.7 °F 12.9 °F 77% 29.89 in 0.5 mi ENE 20.7 mph - 0.00 in Snow Snow
1:53 PM 19.0 °F 3.2 °F 12.9 °F 77% 29.95 in 0.5 mi ENE 19.6 mph - 0.00 in Snow Snow
2:32 PM 18.0 °F 4.2 °F 14.0 °F 84% 29.94 in 0.2 mi NNE 13.8 mph - 0.00 in Fog , Snow Snow
2:53 PM 17.1 °F 3.6 °F 12.9 °F 84% 30.01 in 0.2 mi NE 12.7 mph - 0.01 in Fog , Snow Heavy Snow
3:53 PM 16.0 °F 0.6 °F 12.0 °F 84% 30.06 in 0.2 mi NNE 16.1 mph - 0.00 in Fog , Snow Snow
4:17 PM 17.1 °F 1.0 °F 12.0 °F 81% 29.98 in 0.2 mi NNE 18.4 mph - 0.00 in Snow Heavy Snow
4:53 PM 17.1 °F 2.5 °F 12.0 °F 81% 30.09 in 0.2 mi NNE 15.0 mph - 0.00 in Snow Heavy Snow
5:12 PM 16.0 °F 1.1 °F 12.0 °F 84% 30.01 in 0.8 mi NE 15.0 mph - 0.00 in Snow Light Snow
5:19 PM 16.0 °F 0.1 °F 12.0 °F 84% 30.01 in 2.0 mi NE 17.3 mph - 0.00 in Snow Light Snow
5:31 PM 16.0 °F 0.6 °F 12.0 °F 84% 30.02 in 1.2 mi NE 16.1 mph - 0.00 in Snow Light Snow
5:50 PM 15.8 °F 0.9 °F 10.4 °F 79% 30.02 in 0.8 mi NE 15.0 mph - 0.00 in Snow Light Snow
6:53 PM 15.1 °F -0.1 °F 10.9 °F 84% 30.16 in 0.8 mi NE 15.0 mph - 0.00 in Snow Light Snow
7:00 PM 15.1 °F 0.5 °F 10.9 °F 84% 30.04 in 0.5 mi NNE 13.8 mph - 0.00 in Fog , Snow Light Snow
7:10 PM 15.1 °F 0.5 °F 10.9 °F 84% 30.04 in 0.8 mi NNE 13.8 mph - 0.00 in Snow Light Snow
7:19 PM 14.0 °F -0.2 °F 10.0 °F 84% 30.04 in 1.0 mi NE 12.7 mph - 0.00 in Snow Light Snow
7:49 PM 14.0 °F 0.5 °F 10.4 °F 86% 30.06 in 2.0 mi NNE 11.5 mph - 0.00 in Snow Light Snow
7:53 PM 14.0 °F -0.2 °F 10.0 °F 84% 30.19 in 1.8 mi NNE 12.7 mph - 0.00 in Snow Light Snow
8:02 PM 14.0 °F 1.2 °F 10.0 °F 84% 30.08 in 0.8 mi NE 10.4 mph - 0.00 in Snow Light Snow
8:21 PM 14.0 °F 2.9 °F 10.0 °F 84% 30.09 in 1.0 mi NE 8.1 mph - 0.00 in Snow Light Snow
8:53 PM 14.0 °F 2.9 °F 10.0 °F 84% 30.25 in 1.0 mi NNE 8.1 mph - 0.00 in Snow Light Snow
9:06 PM 14.0 °F 2.9 °F 10.0 °F 84% 30.12 in 0.8 mi NNE 8.1 mph - 0.00 in Snow Light Snow
9:13 PM 14.0 °F 1.2 °F 10.0 °F 84% 30.12 in 0.5 mi NNE 10.4 mph - 0.01 in Fog , Snow Snow
9:25 PM 12.9 °F -2.8 °F 9.0 °F 84% 30.13 in 0.8 mi NE 15.0 mph - 0.01 in Snow Light Snow
9:39 PM 12.9 °F -0.9 °F 9.0 °F 84% 30.14 in 1.0 mi NNE 11.5 mph - 0.01 in Snow Light Snow
9:53 PM 12.9 °F -1.6 °F 9.0 °F 84% 30.28 in 1.2 mi NNE 12.7 mph - 0.01 in Snow Light Snow
10:03 PM 12.9 °F -0.2 °F 9.0 °F 84% 30.14 in 2.0 mi NNE 10.4 mph - 0.00 in Snow Light Snow
10:13 PM 12.9 °F -0.2 °F 9.0 °F 84% 30.14 in 4.0 mi NNE 10.4 mph - 0.00 in Snow Light Snow
10:53 PM 10.9 °F 0.2 °F 9.0 °F 92% 30.32 in 6.0 mi North 6.9 mph - 0.00 in   Overcast
11:19 PM 10.0 °F 0.4 °F 8.1 °F 92% 30.16 in 1.8 mi NW 5.8 mph - 0.00 in Snow Light Snow
11:28 PM 10.0 °F -0.9 °F 7.0 °F 87% 30.16 in 1.5 mi NNW 6.9 mph - 0.00 in Snow Light Snow
11:37 PM 10.0 °F -0.9 °F 7.0 °F 87% 30.16 in 2.0 mi NNW 6.9 mph - 0.00 in Snow Light Snow
11:40 PM 9.0 °F -2.2 °F 7.0 °F 92% 30.16 in 1.8 mi NW 6.9 mph - 0.00 in Snow Light Snow